Location: Burjasot
(39.5167°N, 0.4167°W)
Time: 06:40:24
(UTC+02:00)

ISS - Pass Details

Date: 23 May 2019
Orbit: 407 x 419 km, 51.6° (Epoch: 26 June)

Event Time Altitude Azimuth Distance (km) Brightness Sun altitude
Rises 00:08:48 0° 302° (WNW) 2,358 1.0 -24.8°
Reaches altitude 10° 00:12:27 10° 343° (NNW) 1,499 0.1 -25.1°
Maximum altitude 00:13:16 11° 357° (N) 1,462 -0.2 -25.2°
Drops below altitude 10° 00:14:04 10° 11° (N) 1,501 -0.3 -25.3°
Enters shadow 00:17:40 - 52° (NE) 2,346 0.2 -25.6°
